Wind_Speed
21 21 23 25 26 26 25 24 23 23 23 22 22 22 23 23 22 22 22 22 22 22 23 23 24 25 26 26 27 28 28 28 28 29 29 29 29 29 29 29 29 30 31 31 32 33 34 35 36 37 39 41 42 43 45 46 47 48 48 48 48 46 43 40 36 33 31 31 31 31 31 31 31 31
19 21 23 25 25 25 23 22 21 21 20 20 20 20 20 20 20 20 20 20 20 20 21 22 23 24 25 27 27 28 28 28 28 28 28 28 28 28 28 28 28 28 28 28 28 29 30 31 32 34 35 37 39 40 41 42 43 44 45 46 47 47 46 45 43 40 37 34 31 30 30 30 30 30
21 22 23 23 23 22 21 20 19 19 18 18 17 17 16 16 17 17 17 18 19 19 20 22 23 24 25 26 27 27 27 27 28 28 28 28 28 28 28 28 28 28 27 26 25 25 26 27 29 30 31 33 35 37 38 39 40 40 41 43 44 45 45 45 45 44 42 40 37 34 31 30 28 28
17 18 19 20 20 19 18 17 17 16 16 15 14 14 13 13 13 14 14 16 17 19 20 21 23 23 24 25 25 25 26 26 27 27 28 28 29 28 28 28 28 28 28 27 26 25 25 25 26 27 28 30 32 34 35 36 36 37 38 39 40 41 42 43 44 44 43 42 41 39 37 34 32 29
13 14 15 16 17 16 15 14 14 13 13 11 11 11 11 11 11 12 13 14 16 18 19 20 21 21 22 22 23 24 25 25 26 27 28 28 28 28 28 27 27 27 27 27 27 26 25 25 25 26 27 28 29 30 32 33 34 34 35 35 36 38 39 40 41 41 42 42 42 41 40 39 37 35
12 13 13 14 14 13 12 11 11 10 10 10 9 10 10 9 9 11 12 13 14 16 17 18 19 19 20 21 21 22 23 24 25 26 26 27 27 27 27 27 27 26 26 26 27 27 26 25 24 25 26 27 28 28 29 30 31 32 32 33 33 34 35 36 37 38 39 39 40 40 40 40 39 38
9 10 11 11 11 10 9 8 8 7 8 9 9 10 10 9 9 9 10 11 13 14 15 16 17 18 19 20 21 21 22 23 24 24 25 25 26 27 26 26 26 26 25 25 25 26 26 25 24 23 24 25 26 27 27 28 28 29 30 30 31 31 32 33 33 34 35 36 36 37 38 38 38 38
7 6 7 7 7 6 6 5 4 5 7 7 7 8 8 8 8 8 9 10 11 12 13 15 16 17 18 19 20 21 21 22 23 23 24 24 24 25 25 26 26 25 24 24 23 23 24 24 24 22 21 22 23 24 25 26 26 26 27 27 28 28 29 29 30 31 32 32 33 33 34 35 36 36
6 5 4 3 3 3 2 1 1 3 5 5 5 6 6 6 6 7 7 8 9 11 12 13 15 16 17 18 19 20 21 22 22 23 24 24 24 24 24 24 24 24 23 22 22 22 21 21 21 21 20 19 19 20 22 23 23 24 24 25 25 26 26 26 27 28 29 29 30 30 31 31 32 33
4 4 3 2 1 1 2 2 2 3 4 4 5 5 6 6 7 7 8 9 10 12 13 14 15 16 17 17 18 19 20 21 21 22 23 23 24 24 24 23 23 23 23 22 21 20 20 19 19 19 19 18 17 16 17 18 20 21 21 22 23 23 24 24 24 25 26 27 27 28 28 28 29 29
3 3 2 1 0 1 2 3 4 5 5 5 5 6 7 7 8 9 10 12 13 14 15 16 17 18 19 19 20 21 21 22 22 22 22 22 23 23 24 24 23 22 21 21 21 20 19 18 17 16 16 16 15 14 13 14 15 17 18 19 20 20 21 22 22 23 23 23 24 25 25 26 26 26
5 5 5 4 4 3 3 4 5 6 7 7 7 8 8 9 9 10 12 13 15 16 17 18 19 20 21 21 22 22 23 23 23 22 22 22 22 22 22 21 21 21 19 18 19 19 18 17 16 15 14 13 13 12 11 10 11 12 13 14 15 16 17 18 19 20 21 20 21 21 22 23 23 23
6 6 5 5 6 6 6 7 8 8 9 10 10 10 10 11 11 12 13 15 16 17 19 20 21 22 23 23 23 23 23 23 23 23 22 21 20 20 20 19 17 17 18 17 16 16 17 16 15 15 14 12 11 10 9 9 8 8 8 9 10 11 12 14 15 16 17 18 18 18 19 19 19 20
5 6 6 5 5 6 7 8 9 11 11 12 12 12 13 13 13 14 15 16 17 18 19 20 22 23 24 24 24 24 25 25 24 24 22 20 18 17 18 18 16 15 15 16 14 13 13 15 15 14 14 13 11 10 8 8 7 7 6 6 6 7 8 9 10 11 12 13 14 15 15 15 15 16
5 6 6 7 7 6 7 8 9 10 11 13 13 14 15 15 15 16 16 17 18 18 19 20 21 22 23 24 24 24 24 24 23 22 21 19 17 15 15 17 17 15 14 15 14 12 10 12 13 12 12 12 12 11 9 7 7 7 6 5 4 4 4 4 5 6 7 8 9 10 11 11 11 12
8 8 9 10 10 10 10 9 9 10 10 11 12 13 14 15 15 16 17 18 18 18 17 17 19 20 21 21 22 22 22 22 22 20 19 19 17 15 14 14 16 16 14 13 13 13 11 11 11 11 11 10 10 10 10 9 7 7 7 6 5 4 3 2 2 2 3 3 4 5 6 6 7 7
12 13 13 14 14 15 14 13 11 10 10 10 11 12 12 12 13 14 15 17 18 18 17 16 17 18 19 19 20 20 20 20 20 20 19 19 18 16 14 14 14 16 15 12 11 13 14 13 12 12 11 11 10 10 10 10 9 8 8 8 7 6 6 4 3 2 2 2 2 2 3 3 4 4
17 17 18 18 18 18 18 16 14 12 11 11 11 11 11 11 11 12 13 15 16 16 16 16 16 16 17 18 18 19 19 19 19 19 19 19 19 17 15 15 13 14 16 15 12 11 13 15 14 13 13 12 12 11 10 10 11 11 10 10 10 9 9 8 7 6 5 4 4 4 4 4 4 4
23 22 22 22 21 20 20 20 18 17 15 14 13 13 12 11 11 11 12 13 14 15 15 16 15 15 16 17 17 17 18 19 20 20 19 19 18 17 15 14 13 13 15 17 15 13 12 14 15 15 15 14 13 13 12 11 10 11 12 12 12 13 12 11 11 10 9 8 7 7 6 6 7 7
28 26 26 25 24 23 23 23 22 21 19 18 16 16 15 13 12 12 13 13 14 14 15 15 15 15 15 16 16 16 17 19 21 21 20 19 18 17 16 14 13 13 15 17 17 16 15 15 15 15 14 15 15 14 13 12 12 12 12 12 13 14 15 15 14 13 12 11 11 10 10 9 9 10
31 30 29 29 28 27 26 25 25 25 24 23 21 19 17 15 14 14 14 15 15 16 16 16 16 16 16 16 15 15 17 19 21 23 23 22 20 18 18 17 15 14 15 16 17 17 16 17 17 16 14 14 15 15 13 13 14 13 12 12 13 15 16 17 17 16 16 15 14 13 13 13 13 13
32 32 31 31 30 30 29 28 28 28 27 27 25 23 20 18 16 16 16 16 17 17 17 18 18 17 18 18 17 17 18 19 21 24 25 25 23 20 19 20 20 17 16 17 18 17 17 18 19 20 17 14 14 15 15 15 16 16 15 14 15 16 16 17 18 19 19 18 18 17 17 17 17 17
32 32 32 32 33 32 32 31 31 31 30 29 28 27 25 23 21 21 21 20 20 20 20 20 20 21 21 22 21 21 22 22 22 24 26 27 26 24 22 22 23 21 19 18 19 19 19 19 20 21 22 19 16 14 16 17 18 19 18 18 18 19 19 18 18 18 19 19 20 20 20 20 20 20
35 34 35 35 35 35 34 34 34 35 34 32 31 31 30 29 28 28 27 26 26 27 26 26 25 25 26 26 26 26 26 26 26 27 28 28 28 29 29 27 26 25 23 22 22 22 21 20 20 21 23 24 22 19 17 18 20 21 20 20 20 21 22 21 21 20 20 20 20 20 21 21 22 22
40 40 40 39 38 37 37 37 37 38 38 38 37 36 35 34 34 33 32 32 32 32 32 32 31 30 30 31 31 30 30 30 29 30 30 30 30 31 32 31 30 30 30 29 29 28 26 23 23 23 24 25 26 24 21 20 21 22 22 22 22 23 23 23 23 24 24 23 22 22 22 22 23 23
41 41 42 43 42 41 40 40 40 40 41 42 42 42 41 41 40 39 38 37 37 37 37 37 37 36 36 36 35 35 35 35 34 33 32 31 31 32 33 32 32 33 34 34 33 33 32 30 28 28 28 28 28 28 27 25 24 24 25 26 26 26 25 25 25 25 26 27 26 25 24 23 23 23
45 46 49 50 49 45 43 42 42 43 43 44 45 46 47 47 46 45 44 42 42 42 42 42 42 42 41 41 40 40 40 40 39 38 36 34 35 35 35 35 35 35 36 36 36 36 37 35 33 33 33 34 34 33 33 32 30 29 29 29 29 28 28 27 27 27 28 28 28 28 27 26 26 25
50 53 55 56 55 52 48 46 45 45 46 47 48 49 50 51 51 50 49 48 47 47 47 47 47 47 47 46 46 45 44 44 44 43 42 40 40 39 40 40 40 40 39 38 38 38 39 39 39 38 38 39 40 40 39 38 36 35 34 34 33 32 32 31 29 29 30 30 30 30 29 29 29 29
52 53 55 57 56 55 54 52 50 49 49 50 50 51 53 53 54 53 53 52 52 51 51 51 51 52 52 52 51 51 49 48 48 48 47 46 45 44 44 44 44 44 43 42 41 41 41 41 43 43 43 43 44 45 44 43 41 40 39 39 38 37 36 36 34 33 32 33 33 34 33 32 32 31
59 59 59 59 59 59 59 59 57 55 54 52 53 54 54 55 56 56 55 55 54 55 55 56 56 57 57 56 56 56 56 55 54 53 52 51 50 50 49 49 49 48 47 46 46 46 45 44 45 46 47 48 48 48 48 48 47 46 46 46 45 43 41 39 39 38 37 36 35 36 38 38 37 36
68 68 68 67 66 65 65 64 64 63 60 58 56 56 57 58 61 62 62 61 61 61 61 61 61 61 61 61 61 61 61 60 60 59 58 57 55 54 54 54 54 54 53 52 51 51 50 49 49 49 50 51 51 51 51 52 52 52 51 51 50 49 47 46 45 44 42 41 40 39 39 40 41 40
76 75 74 73 73 72 72 71 71 71 70 67 65 63 63 63 64 65 67 68 69 69 69 68 66 65 64 64 65 65 65 65 65 64 64 62 61 60 59 59 59 59 58 57 56 56 55 54 53 53 53 53 54 55 55 55 55 56 57 56 55 54 54 53 52 51 49 48 47 47 45 44 43 42
80 78 76 75 75 76 76 77 77 76 75 74 72 70 67 67 67 68 69 70 71 72 72 71 70 69 69 69 69 68 68 68 68 68 68 67 66 65 65 66 66 65 65 63 62 61 60 59 59 57 57 57 57 57 58 58 59 59 60 61 60 60 60 58 58 57 57 55 55 54 53 51 49 48
81 80 79 78 78 77 77 77 78 79 78 76 75 72 70 69 70 72 73 74 75 75 75 74 73 73 73 74 74 73 72 72 72 72 72 72 72 72 72 72 73 72 71 70 69 67 66 65 64 64 64 64 64 62 61 62 63 63 63 64 64 64 65 65 64 63 63 62 61 61 60 59 56 55
84 84 83 83 83 82 81 79 79 81 81 80 78 76 74 73 74 75 77 78 80 81 81 80 79 78 78 78 78 77 77 77 77 77 77 77 78 78 78 78 77 77 76 75 74 73 72 70 70 69 70 70 69 68 66 64 64 65 66 67 68 68 68 69 69 69 68 67 66 67 67 67 64 60
90 89 87 86 86 86 86 84 83 83 85 85 84 83 82 81 81 81 82 83 85 87 87 87 86 85 84 83 83 83 83 82 81 81 81 81 81 81 81 81 81 81 81 80 79 79 78 77 76 75 75 74 74 74 72 70 68 67 68 70 72 73 72 72 72 73 72 72 71 71 72 73 72 68
98 96 94 93 91 90 90 91 90 89 89 90 92 94 94 93 91 89 89 89 90 91 91 91 90 89 89 89 89 88 87 86 86 86 85 85 85 84 84 85 85 85 85 84 83 82 82 82 81 81 80 79 78 79 80 80 78 76 73 73 75 75 75 76 76 76 76 76 76 76 76 77 78 77
103 102 102 101 100 98 97 96 95 94 93 93 95 97 98 99 98 97 96 96 97 96 96 94 93 93 92 92 92 91 90 89 89 89 88 88 88 87 87 88 87 87 86 85 84 83 83 83 83 83 83 83 83 83 84 86 86 84 81 79 78 77 77 77 78 80 80 80 80 80 80 81 82 83
106 105 105 105 105 104 103 102 100 99 99 98 98 99 100 101 102 102 102 102 102 101 100 99 98 97 96 95 94 93 93 92 91 91 91 90 90 90 90 90 90 89 88 87 86 85 84 83 83 83 83 84 84 84 86 87 89 89 87 85 82 80 78 77 77 79 81 83 83 84 84 85 85 85
109 108 108 107 107 107 106 106 105 105 104 104 104 104 104 105 105 106 106 106 105 104 103 103 102 102 101 100 99 98 97 96 96 95 94 93 92 91 91 91 91 91 90 90 90 89 88 87 86 85 85 84 84 85 86 87 89 91 91 88 86 84 83 81 79 79 80 81 82 83 85 86 87 87
111 111 111 111 110 110 109 109 108 108 108 108 108 108 109 109 109 109 109 108 108 108 107 106 105 105 104 104 103 102 102 101 101 100 100 99 98 97 96 95 94 93 93 92 93 93 94 93 92 91 90 89 88 88 88 88 90 92 93 92 91 89 88 87 86 85 84 84 84 84 84 86 87 87
113 113 113 113 112 112 112 111 111 111 111 111 111 111 111 111 111 110 110 109 109 109 108 107 107 106 106 105 105 104 104 104 104 104 104 104 104 104 104 104 103 102 100 99 98 98 98 98 97 97 96 95 95 94 93 93 93 95 96 97 96 95 93 92 92 91 91 90 90 89 89 89 89 89
114 114 114 114 114 113 113 112 112 112 113 113 112 112 112 112 112 111 111 110 110 110 109 109 108 108 108 107 107 106 106 106 106 106 106 107 107 108 109 109 109 109 109 108 107 107 106 105 104 103 103 102 101 100 98 98 98 98 99 101 102 101 100 99 97 97 97 96 96 95 95 94 93 93
117 116 116 116 116 115 115 114 114 114 114 115 115 115 114 113 113 113 112 112 112 112 112 112 111 111 111 110 110 109 109 109 109 109 109 110 110 111 111 111 111 112 112 113 113 113 114 114 114 114 113 112 111 109 107 105 103 103 103 103 104 105 105 104 103 102 102 103 103 103 102 101 100 99
118 118 118 118 118 117 117 117 117 117 117 117 117 117 117 116 116 116 116 115 115 115 115 115 115 114 114 114 113 113 112 112 112 112 113 113 113 113 113 113 114 114 115 115 115 116 117 118 119 119 119 119 119 118 116 114 113 112 112 111 111 111 111 110 108 107 107 107 108 109 109 108 108 106
Wind_Direction
110 109 116 120 117 112 107 102 99 97 94 91 88 85 83 80 76 72 68 65 61 58 56 54 51 50 48 47 45 45 45 45 44 43 43 43 43 44 44 44 44 45 46 47 48 50 52 52 53 53 53 52 51 51 51 52 52 53 54 55 57 59 60 61 61 62 62 62 62 63 66 71 75 78
112 114 120 122 117 112 108 104 101 98 94 89 85 81 77 72 68 65 64 62 59 56 54 52 48 45 44 43 42 41 41 42 43 43 45 45 46 46 48 49 48 48 47 46 46 46 48 50 51 52 52 52 51 50 51 51 51 52 52 54 55 57 58 60 61 62 63 64 64 64 65 67 71 76
112 116 120 121 118 113 109 105 102 99 93 87 81 76 72 67 63 61 61 61 58 55 52 49 45 41 39 37 36 36 37 38 40 42 45 47 48 49 50 51 52 52 51 50 49 48 48 48 49 50 51 51 51 50 50 50 50 51 51 52 53 55 56 58 59 61 62 63 64 65 67 67 69 71
110 116 120 122 121 117 112 107 103 100 93 85 77 69 65 63 61 61 60 57 54 51 48 45 41 37 34 32 31 31 33 34 36 39 41 43 45 47 48 50 51 52 52 51 51 51 51 51 51 51 51 51 51 50 49 49 49 49 49 50 51 52 54 56 57 59 60 62 63 64 65 67 68 70
106 114 122 127 125 119 114 107 101 96 89 78 66 57 55 59 61 59 54 49 47 45 43 40 36 33 31 29 28 28 29 31 32 34 35 37 39 41 43 45 47 48 49 49 48 49 50 51 52 52 52 51 50 50 49 48 47 47 47 48 50 50 52 53 55 57 58 60 62 63 64 65 67 68
106 112 120 126 125 119 113 104 95 88 76 62 55 53 57 62 62 54 45 39 38 37 35 32 29 27 26 24 24 25 26 27 28 29 30 31 32 34 36 38 40 41 44 45 46 45 45 47 49 51 51 51 50 49 49 48 47 45 45 46 48 49 50 52 53 55 56 58 60 62 63 64 65 66
107 112 119 125 125 120 112 102 90 75 56 50 54 59 60 61 55 46 40 35 31 29 26 24 21 19 17 17 18 19 20 21 22 24 26 26 27 28 29 30 32 33 35 38 41 42 42 42 43 46 49 50 49 48 48 48 47 46 44 44 45 47 49 50 51 52 54 56 57 59 61 63 64 65
88 102 114 122 125 124 118 106 85 55 39 40 47 52 55 56 50 43 37 31 25 20 16 14 13 12 11 12 12 13 14 15 17 18 20 22 22 23 23 23 23 24 26 28 30 33 37 38 38 40 44 47 48 48 47 46 46 45 44 43 43 43 45 47 49 51 52 53 55 57 59 61 63 64
72 80 95 111 128 141 143 124 57 21 15 19 26 33 39 41 38 32 24 16 11 7 4 4 4 5 5 6 6 7 8 9 10 11 13 14 15 16 17 18 17 16 17 20 21 21 24 29 33 35 37 41 45 47 47 45 44 44 44 43 42 42 43 45 47 49 50 51 53 55 57 58 60 62
61 70 80 91 119 208 242 269 284 309 333 347 357 1 4 5 4 2 358 355 352 351 352 353 354 355 355 356 357 358 359 1 2 4 4 5 6 7 8 10 12 11 10 11 13 14 13 15 22 28 31 33 37 42 45 45 43 42 43 42 41 41 42 44 47 48 50 51 52 53 55 57 58 60
351 346 356 20 3 244 252 261 269 278 292 308 320 328 336 341 343 342 342 341 340 340 341 342 343 345 346 347 348 349 350 351 353 355 357 357 358 359 0 2 4 6 6 5 5 8 10 9 10 16 23 28 30 32 38 43 44 43 44 43 42 42 42 43 46 48 49 51 52 54 55 56 58 59
7 348 329 308 290 278 271 271 274 274 278 286 293 302 311 318 322 326 328 328 329 329 331 333 335 337 338 339 340 340 341 343 345 346 349 350 351 352 354 357 357 358 1 4 3 3 7 9 7 6 11 18 23 25 27 33 39 42 43 44 44 43 43 43 43 45 48 50 53 55 56 57 58 59
16 11 359 334 309 295 286 279 278 277 276 277 281 287 293 298 304 309 312 315 317 319 321 323 326 328 330 331 331 332 333 334 336 338 341 344 346 346 347 350 354 353 354 0 6 6 6 9 8 3 1 3 9 15 19 19 26 35 38 41 44 44 44 43 42 42 45 47 50 54 58 59 60 61
3 1 357 347 332 316 299 285 277 273 272 273 275 277 281 284 288 292 296 300 304 307 311 314 318 320 321 322 323 324 326 327 330 333 336 339 342 342 340 342 347 351 351 356 7 16 12 10 10 5 357 353 352 356 3 5 7 13 19 25 31 38 41 41 41 40 40 42 44 49 53 58 62 63
336 337 335 331 328 323 312 298 287 281 277 275 275 276 277 279 282 285 287 289 291 296 301 306 310 312 314 316 318 321 324 326 330 334 336 337 340 342 339 336 338 344 350 353 360 12 18 14 12 9 0 351 345 340 341 343 345 347 351 354 0 10 23 30 34 36 35 33 35 39 43 49 55 62
303 308 311 316 324 327 323 318 313 307 297 287 281 279 280 283 286 288 289 291 293 296 300 305 308 310 313 317 320 323 327 329 333 336 338 336 338 342 340 334 333 335 343 351 351 353 3 10 9 8 3 355 345 335 329 325 322 321 322 323 323 320 322 338 4 12 14 17 16 19 24 31 37 45
286 292 300 311 322 326 323 322 321 317 310 302 294 289 289 291 293 295 297 299 301 305 309 311 312 313 315 319 321 323 328 332 334 336 336 335 336 340 339 335 332 330 332 342 346 342 345 353 355 355 356 354 348 339 327 317 312 307 306 306 306 302 293 284 281 291 302 304 307 316 329 341 350 356
285 291 299 307 313 314 313 315 318 314 310 308 303 298 296 294 294 297 299 301 303 307 310 311 312 312 313 315 317 320 324 328 331 333 334 332 331 336 337 334 335 332 327 331 340 338 335 338 341 342 343 343 341 340 335 322 311 303 299 298 297 296 291 283 275 267 263 268 271 273 280 286 293 300
286 290 295 298 301 304 305 308 310 310 308 305 301 297 294 291 290 294 295 296 300 303 303 305 309 310 309 309 311 315 318 323 326 329 330 328 326 330 334 332 332 332 325 324 332 338 331 328 331 334 335 333 332 333 333 328 316 305 299 296 296 295 292 288 282 275 267 262 263 265 270 273 275 276
281 285 287 290 294 296 298 300 302 303 303 303 299 295 292 291 291 291 291 293 295 296 296 299 302 303 303 303 305 307 311 317 322 324 325 324 324 327 332 333 331 327 320 317 324 331 327 322 322 325 328 327 324 325 327 324 317 309 302 298 295 293 292 290 288 283 278 271 266 264 263 264 264 265
276 278 281 283 286 288 290 292 293 295 296 297 296 291 288 287 288 289 290 290 289 288 289 291 293 295 295 295 296 299 304 311 316 319 319 320 321 324 329 334 332 325 315 309 313 319 320 320 319 319 323 325 320 318 321 320 315 310 306 302 297 292 289 287 287 287 285 281 277 272 268 263 259 257
269 273 276 279 280 282 284 286 286 287 288 289 288 285 281 278 278 280 282 284 284 285 285 285 288 290 291 291 290 291 295 302 310 312 311 311 313 317 323 327 328 327 318 310 308 313 316 317 316 316 320 326 322 316 315 314 310 308 306 304 301 297 292 286 283 282 284 285 284 282 278 272 266 261
265 267 271 275 277 278 279 280 280 279 279 280 280 278 276 274 271 271 272 274 276 279 280 280 283 285 288 290 290 290 291 295 300 304 304 303 305 308 311 314 316 320 322 316 312 315 316 314 313 315 317 319 320 317 313 311 308 306 305 303 301 299 297 293 287 281 280 281 283 283 281 278 275 270
263 264 267 270 273 275 277 277 276 275 274 273 273 273 273 273 273 273 273 272 273 274 276 277 279 281 284 287 289 290 292 292 294 296 299 300 300 301 302 303 304 308 313 314 312 312 314 311 309 311 313 313 314 313 311 309 307 305 304 303 301 299 297 296 294 289 284 281 279 279 278 278 277 275
263 264 265 266 268 271 273 275 276 276 275 274 273 272 272 273 274 275 276 276 275 276 277 278 279 280 282 284 286 288 290 291 291 292 294 296 297 296 297 298 299 300 303 305 305 305 306 306 303 304 306 308 310 312 311 309 305 302 301 301 301 300 298 297 296 295 291 288 284 280 276 274 275 276
263 265 267 268 269 267 267 270 273 275 277 277 276 275 274 274 274 274 276 277 278 278 278 278 278 279 281 281 283 284 286 287 287 287 288 289 290 290 291 293 294 296 297 298 298 297 299 300 299 298 300 301 302 305 306 307 305 302 301 301 300 298 297 297 297 296 294 291 288 285 279 275 272 274
266 270 272 275 274 270 266 266 268 271 274 276 276 276 276 275 274 275 276 277 278 278 278 278 279 279 280 280 281 282 284 284 283 283 283 284 285 285 284 286 289 292 293 293 293 292 293 294 294 294 295 297 298 299 299 300 300 300 301 302 302 300 298 296 295 295 294 292 289 286 283 280 277 275
270 274 276 277 276 272 268 268 269 271 274 275 275 276 276 275 275 275 275 276 277 279 280 281 282 281 281 281 281 281 282 282 282 282 281 281 282 282 281 282 284 287 289 290 291 290 289 289 290 291 291 293 295 295 295 295 295 296 296 297 299 300 299 297 295 293 291 290 288 285 283 283 283 282
269 272 273 274 274 271 270 269 270 271 273 275 275 276 276 275 275 274 273 274 276 279 282 283 283 282 282 282 282 281 281 281 281 282 281 281 280 280 280 280 281 283 284 285 286 287 287 287 288 288 289 289 290 291 291 291 291 291 292 292 293 294 295 296 296 295 293 290 287 285 283 283 283 283
266 269 269 269 269 270 271 271 271 271 272 272 272 273 274 274 274 273 272 274 275 278 281 283 283 283 283 283 283 282 281 281 281 281 282 281 280 279 279 279 279 281 281 281 281 283 284 284 285 286 286 286 287 287 288 288 288 288 288 288 289 289 290 291 292 293 293 291 288 286 285 284 283 282
266 267 268 267 267 268 269 271 272 272 271 269 269 269 271 272 272 272 273 274 275 277 279 281 283 283 283 282 282 281 282 282 282 282 281 281 281 281 280 280 279 279 279 278 279 279 279 281 283 284 284 284 284 285 285 286 287 286 285 286 286 287 287 288 287 287 288 288 287 286 285 284 284 284
265 266 267 267 266 267 267 269 270 272 272 271 270 271 272 272 273 273 273 274 275 277 279 280 282 282 281 280 280 281 281 282 281 281 281 280 280 281 281 281 281 280 279 278 278 277 276 277 279 280 281 281 282 283 283 284 284 284 285 285 285 284 285 286 285 285 285 285 285 285 284 283 283 283
263 264 265 265 266 266 267 268 270 270 271 271 272 273 274 276 276 275 275 274 274 275 276 278 279 280 279 279 278 279 279 280 280 280 280 280 279 280 280 281 282 282 281 280 279 278 277 276 276 277 278 279 280 280 282 282 282 282 283 283 283 283 283 284 284 284 285 284 284 283 283 282 282 281
261 263 263 264 265 266 267 268 269 269 270 270 271 272 274 276 276 276 277 277 276 276 275 275 275 276 276 277 277 276 276 276 277 277 278 278 278 279 280 281 281 282 282 281 281 280 279 277 276 275 276 277 277 278 279 281 282 282 282 281 281 282 282 283 283 283 283 283 283 283 283 281 280 280
263 263 263 263 263 264 265 266 267 267 268 269 271 272 274 275 275 276 277 278 278 278 277 276 276 275 275 275 275 275 274 274 274 275 276 276 277 278 278 279 280 281 281 281 280 280 279 279 278 276 275 275 275 275 276 277 279 280 281 281 280 280 280 281 281 281 281 281 282 282 283 282 280 278
264 264 264 263 263 263 264 265 265 265 265 266 268 270 273 274 275 276 277 278 278 278 278 278 277 277 276 276 275 275 275 274 274 274 274 274 274 275 276 277 278 279 280 280 280 279 279 279 279 278 277 276 275 274 274 274 275 276 278 279 279 278 278 278 279 279 279 280 280 281 282 282 281 280
262 263 263 263 263 264 264 265 266 266 265 265 265 267 269 271 273 275 276 277 278 279 278 278 277 277 276 276 276 276 276 275 275 275 274 274 274 274 275 276 277 278 278 279 278 278 278 279 279 279 278 277 276 275 275 275 275 275 276 277 278 277 276 275 276 277 277 278 279 279 280 280 281 281
261 261 262 263 263 264 265 266 267 267 267 266 266 266 267 268 270 272 274 276 277 278 277 277 276 276 276 276 276 276 276 276 276 275 275 275 276 276 276 276 277 278 278 278 278 278 277 277 277 277 277 277 276 276 275 275 276 276 276 276 276 275 273 272 273 273 274 275 276 277 278 278 279 279
262 262 262 263 263 264 265 266 266 266 266 266 266 266 267 268 269 270 272 273 275 275 275 275 275 275 275 275 274 274 274 274 274 274 275 275 275 276 276 276 277 278 278 278 278 277 277 277 277 276 276 276 276 275 275 275 276 277 277 277 277 275 273 271 270 270 271 272 273 274 274 275 275 276
264 264 264 264 264 264 265 265 266 266 266 266 266 266 267 267 268 269 271 272 273 273 273 273 273 273 273 273 273 272 272 272 272 272 273 273 273 274 274 274 275 275 276 276 276 276 275 275 275 274 274 274 274 274 274 274 275 276 277 277 277 277 275 274 272 271 271 271 271 271 272 273 273 274
263 264 264 265 265 266 266 266 266 267 267 267 267 267 267 268 269 269 270 271 272 272 273 273 273 273 273 272 272 272 272 272 272 271 271 271 271 271 271 272 272 272 273 273 274 275 275 275 274 274 273 272 272 271 272 272 272 273 274 275 275 275 275 275 274 274 273 272 272 272 271 271 271 272
263 264 264 265 265 266 266 267 267 267 268 268 268 268 269 269 270 270 271 271 272 272 272 273 273 273 273 273 272 272 272 272 272 271 271 271 271 271 271 271 271 271 271 271 272 272 273 273 274 274 274 273 273 272 272 271 271 271 271 272 273 273 273 273 273 272 272 271 271 271 271 271 271 271
263 264 264 265 265 266 266 267 267 267 268 268 268 269 269 270 270 271 271 271 272 272 272 272 272 272 273 273 273 273 272 272 272 272 272 271 271 271 270 270 271 271 271 271 271 271 271 272 272 272 272 273 272 272 272 271 271 270 270 271 271 272 272 272 272 272 271 271 270 270 270 270 270 270
263 264 264 265 265 266 266 267 267 267 268 268 268 269 269 269 270 270 271 271 271 272 272 272 272 272 273 273 273 273 273 273 273 272 272 272 271 271 271 271 271 271 271 271 271 271 271 271 271 272 272 272 272 271 271 270 270 269 269 269 269 270 270 271 272 272 272 272 272 271 270 269 269 268
263 264 264 265 265 266 266 267 267 267 268 268 269 269 270 270 270 270 270 271 271 271 271 272 272 272 272 273 273 273 273 273 273 273 272 272 272 272 272 271 271 271 271 271 270 270 270 270 271 271 271 271 271 271 270 270 269 269 269 268 268 268 269 269 270 270 271 271 272 272 272 272 271 270
Height
11013 11013 11012 11012 11012 11012 11013 11013 11013 11013 11012 11012 11013 11013 11012 11012 11012 11011 11011 11010 11008 11007 11006 11006 11005 11004 11003 11002 11001 11000 10999 10997 10997 10995 10993 10992 10991 10990 10989 10988 10986 10984 10981 10980 10979 10977 10976 10975 10973 10972 10970 10968 10967 10964 10962 10960 10958 10956 10954 10951 10949 10946 10944 10943 10941 10940 10938 10937 10936 10935 10933 10932 10930 10929
11016 11015 11015 11015 11015 11015 11015 11016 11015 11015 11015 11015 11014 11014 11014 11014 11013 11013 11013 11012 11011 11010 11009 11008 11007 11006 11005 11004 11003 11002 11001 11000 10999 10998 10997 10995 10994 10992 10991 10990 10988 10986 10984 10983 10982 10981 10980 10978 10977 10975 10974 10972 10970 10968 10966 10964 10962 10960 10959 10956 10954 10952 10950 10948 10946 10944 10942 10941 10940 10939 10937 10936 10935 10934
11019 11018 11018 11018 11018 11018 11018 11018 11018 11017 11017 11017 11017 11016 11016 11016 11015 11015 11015 11014 11013 11012 11011 11010 11009 11008 11007 11006 11006 11005 11003 11003 11002 11001 10999 10998 10996 10995 10993 10992 10990 10988 10986 10986 10985 10984 10983 10981 10980 10978 10977 10975 10974 10972 10970 10968 10966 10965 10963 10961 10959 10957 10955 10953 10951 10949 10947 10945 10944 10943 10941 10940 10939 10938
11021 11021 11021 11020 11020 11020 11020 11020 11020 11020 11019 11019 11019 11019 11018 11018 11017 11017 11016 11015 11015 11013 11012 11012 11011 11010 11009 11008 11007 11006 11005 11005 11004 11003 11001 11000 10998 10997 10995 10994 10992 10991 10990 10988 10987 10986 10985 10984 10982 10981 10980 10978 10977 10975 10974 10972 10970 10969 10967 10966 10964 10962 10960 10958 10956 10954 10952 10950 10949 10947 10946 10944 10943 10942
11023 11023 11023 11023 11022 11022 11022 11022 11022 11021 11021 11021 11020 11020 11020 11019 11019 11018 11017 11017 11016 11015 11014 11014 11013 11012 11011 11010 11009 11008 11007 11007 11006 11004 11003 11001 11000 10999 10998 10997 10995 10994 10993 10991 10990 10989 10988 10986 10985 10983 10982 10981 10979 10978 10977 10975 10974 10973 10971 10970 10968 10966 10965 10963 10961 10959 10957 10956 10954 10952 10950 10949 10947 10946
11025 11025 11024 11024 11024 11024 11024 11024 11023 11023 11023 11022 11022 11021 11020 11020 11019 11019 11018 11017 11017 11016 11015 11015 11014 11013 11012 11012 11011 11010 11009 11008 11007 11006 11004 11003 11002 11001 11000 10999 10998 10997 10996 10994 10993 10992 10990 10989 10987 10986 10984 10983 10982 10981 10979 10978 10977 10976 10975 10973 10972 10970 10969 10967 10966 10964 10963 10961 10959 10957 10955 10954 10952 10951
11026 11026 11026 11026 11025 11025 11025 11025 11025 11024 11024 11024 11023 11022 11021 11021 11020 11019 11019 11018 11018 11017 11016 11016 11015 11014 11013 11012 11012 11011 11010 11009 11008 11007 11006 11005 11004 11003 11002 11001 11000 10999 10998 10997 10996 10995 10993 10992 10990 10988 10987 10986 10985 10983 10982 10981 10980 10979 10978 10977 10976 10974 10973 10972 10970 10969 10967 10966 10964 10962 10961 10959 10957 10956
11028 11027 11027 11027 11027 11027 11026 11026 11026 11026 11025 11025 11024 11023 11022 11022 11021 11020 11020 11019 11018 11018 11017 11017 11016 11015 11014 11013 11012 11012 11011 11010 11009 11008 11007 11006 11005 11004 11004 11003 11002 11001 11000 10999 10998 10997 10996 10994 10993 10991 10990 10988 10987 10986 10984 10983 10982 10981 10981 10980 10979 10978 10976 10975 10974 10973 10972 10970 10969 10967 10966 10964 10962 10961
11029 11029 11028 11028 11028 11028 11028 11027 11027 11027 11026 11026 11025 11024 11023 11023 11022 11022 11021 11020 11019 11019 11018 11017 11017 11016 11015 11014 11013 11012 11012 11011 11010 11009 11008 11007 11007 11006 11006 11005 11004 11003 11002 11001 11000 10999 10998 10997 10995 10994 10992 10991 10989 10988 10987 10986 10985 10984 10983 10982 10981 10980 10979 10978 10977 10976 10975 10974 10973 10972 10970 10969 10967 10966
11030 11030 11030 11029 11029 11028 11028 11028 11028 11027 11027 11027 11026 11025 11025 11024 11023 11022 11022 11021 11020 11020 11019 11018 11017 11016 11016 11015 11014 11013 11012 11012 11011 11010 11009 11008 11007 11007 11007 11006 11005 11004 11003 11002 11001 11000 10999 10998 10997 10996 10994 10993 10992 10990 10989 10988 10987 10987 10986 10985 10984 10983 10982 10981 10980 10979 10979 10978 10977 10976 10975 10973 10972 10971
11031 11031 11030 11030 11029 11029 11028 11028 11028 11027 11027 11027 11026 11026 11025 11025 11024 11023 11023 11022 11021 11020 11019 11019 11018 11017 11016 11016 11015 11014 11013 11012 11011 11011 11010 11009 11008 11008 11007 11006 11006 11005 11004 11002 11001 11001 11000 10998 10997 10997 10996 10994 10993 10992 10991 10990 10989 10989 10988 10987 10986 10985 10985 10984 10983 10982 10981 10981 10980 10979 10978 10977 10976 10975
11031 11031 11031 11031 11030 11029 11028 11028 11027 11027 11027 11026 11026 11026 11025 11025 11024 11024 11023 11023 11022 11021 11020 11019 11019 11018 11017 11017 11016 11015 11014 11013 11012 11012 11011 11010 11009 11008 11008 11007 11006 11005 11004 11003 11002 11001 11000 10999 10998 10997 10996 10995 10995 10994 10993 10992 10991 10990 10989 10988 10988 10987 10986 10986 10985 10985 10984 10983 10982 10982 10981 10980 10979 10978
11031 11031 11031 11031 11030 11029 11029 11028 11028 11027 11026 11026 11025 11025 11025 11024 11024 11024 11023 11023 11023 11022 11021 11020 11019 11019 11018 11017 11017 11016 11015 11014 11013 11012 11012 11011 11010 11008 11007 11007 11006 11005 11004 11003 11002 11001 11000 11000 10999 10997 10996 10996 10995 10994 10994 10993 10992 10991 10990 10990 10989 10988 10988 10987 10987 10986 10986 10986 10985 10984 10983 10983 10982 10981
11031 11031 11031 11030 11029 11029 11029 11028 11027 11027 11026 11026 11025 11025 11024 11024 11024 11023 11023 11023 11023 11022 11021 11021 11020 11019 11018 11017 11016 11016 11015 11014 11013 11013 11012 11011 11010 11009 11007 11006 11006 11005 11004 11003 11002 11002 11001 11000 10999 10998 10997 10996 10995 10995 10994 10993 10993 10992 10991 10990 10990 10989 10988 10988 10987 10987 10987 10987 10987 10986 10985 10985 10984 10984
11030 11030 11029 11029 11029 11029 11028 11028 11027 11027 11026 11026 11025 11024 11024 11023 11023 11023 11022 11022 11022 11021 11021 11020 11020 11019 11018 11017 11016 11015 11014 11013 11013 11012 11012 11011 11010 11010 11008 11006 11005 11004 11004 11003 11002 11001 11001 11000 10999 10998 10997 10996 10995 10994 10994 10993 10993 10992 10991 10991 10990 10989 10989 10988 10987 10987 10987 10987 10987 10987 10987 10986 10986 10986
11028 11027 11027 11027 11027 11028 11028 11028 11027 11027 11026 11026 11025 11024 11024 11023 11023 11022 11021 11021 11020 11020 11020 11019 11018 11017 11016 11015 11014 11014 11013 11012 11012 11012 11011 11010 11010 11009 11009 11007 11005 11004 11004 11003 11002 11001 11000 11000 10999 10998 10997 10996 10995 10994 10994 10993 10993 10992 10991 10991 10990 10989 10989 10988 10987 10987 10987 10987 10987 10987 10987 10987 10987 10987
11025 11024 11024 11024 11025 11026 11026 11026 11027 11026 11026 11025 11024 11024 11023 11023 11022 11021 11021 11020 11019 11018 11018 11018 11017 11016 11015 11014 11013 11012 11012 11012 11011 11011 11010 11009 11009 11009 11008 11007 11006 11004 11003 11003 11003 11001 11000 10999 10998 10997 10996 10995 10994 10994 10993 10992 10992 10992 10991 10990 10990 10989 10989 10988 10987 10987 10986 10986 10986 10986 10986 10986 10986 10986
11023 11022 11022 11022 11023 11023 11023 11024 11024 11024 11024 11024 11023 11023 11022 11021 11020 11020 11019 11018 11017 11017 11016 11016 11016 11015 11014 11013 11013 11012 11011 11011 11010 11010 11010 11008 11008 11007 11007 11006 11006 11004 11003 11002 11003 11002 11000 10999 10998 10997 10996 10995 10994 10993 10992 10992 10991 10991 10990 10990 10989 10988 10988 10987 10987 10986 10986 10985 10985 10985 10985 10985 10985 10985
11020 11020 11020 11020 11020 11021 11020 11021 11021 11022 11022 11022 11021 11021 11020 11019 11019 11018 11018 11017 11016 11015 11015 11014 11014 11014 11013 11012 11012 11011 11010 11010 11009 11009 11008 11008 11007 11006 11006 11006 11005 11004 11002 11000 11001 11001 11000 10999 10998 10997 10996 10995 10994 10993 10992 10991 10991 10990 10989 10989 10988 10987 10987 10986 10985 10985 10985 10984 10984 10984 10984 10984 10984 10984
11017 11017 11017 11017 11018 11018 11018 11018 11018 11019 11019 11019 11019 11019 11018 11018 11017 11017 11016 11015 11015 11014 11013 11013 11012 11012 11012 11011 11011 11010 11010 11009 11008 11008 11007 11006 11006 11005 11005 11005 11004 11003 11002 11000 10999 10999 10998 10998 10997 10997 10996 10995 10993 10992 10991 10990 10989 10989 10988 10988 10987 10986 10985 10985 10984 10984 10983 10983 10983 10982 10982 10982 10982 10982
11014 11014 11014 11015 11015 11015 11016 11016 11016 11016 11016 11016 11016 11016 11016 11016 11016 11015 11015 11014 11013 11012 11012 11011 11011 11010 11010 11010 11010 11009 11009 11008 11007 11006 11006 11005 11004 11004 11003 11003 11003 11003 11001 10999 10997 10996 10996 10996 10995 10995 10995 10995 10993 10991 10990 10989 10988 10987 10987 10987 10986 10985 10985 10984 10983 10982 10982 10981 10981 10981 10981 10980 10980 10980
11011 11010 11010 11011 11011 11012 11013 11013 11013 11013 11013 11013 11013 11013 11013 11013 11013 11013 11013 11012 11011 11010 11010 11010 11009 11009 11009 11008 11008 11008 11007 11007 11006 11005 11004 11003 11003 11002 11002 11001 11001 11001 10999 10997 10996 10995 10995 10994 10993 10992 10993 10993 10992 10990 10989 10988 10987 10986 10985 10985 10984 10984 10983 10983 10982 10982 10981 10980 10979 10979 10978 10978 10978 10977
11007 11007 11006 11006 11007 11008 11008 11009 11009 11009 11010 11010 11010 11010 11010 11010 11010 11010 11010 11010 11009 11008 11007 11007 11007 11007 11006 11006 11006 11006 11005 11005 11005 11004 11003 11002 11001 11000 11000 11000 10999 10999 10998 10996 10995 10994 10993 10992 10991 10990 10989 10990 10991 10990 10988 10986 10985 10984 10984 10983 10983 10982 10981 10981 10981 10981 10980 10979 10978 10977 10976 10975 10975 10974
11003 11003 11003 11002 11003 11003 11004 11004 11004 11005 11005 11006 11006 11006 11006 11006 11006 11007 11007 11007 11006 11005 11005 11004 11003 11003 11003 11003 11003 11003 11003 11003 11002 11002 11001 11000 10999 10998 10997 10996 10996 10996 10996 10994 10993 10992 10992 10991 10990 10988 10987 10986 10987 10988 10987 10985 10983 10982 10981 10981 10981 10980 10979 10978 10978 10978 10977 10977 10976 10975 10974 10973 10972 10971
10998 10998 10998 10998 10998 10999 10999 10999 10999 10999 11000 11001 11001 11002 11002 11002 11002 11002 11002 11002 11002 11001 11001 11001 11000 10999 10999 10999 10999 10999 10999 10999 10999 10998 10998 10997 10996 10995 10993 10993 10993 10993 10992 10992 10990 10989 10989 10989 10988 10986 10986 10984 10983 10983 10984 10983 10982 10980 10979 10978 10978 10977 10976 10976 10975 10974 10973 10973 10972 10972 10971 10970 10969 10969
10991 10992 10992 10993 10993 10994 10994 10994 10994 10994 10994 10995 10995 10996 10996 10996 10996 10996 10996 10997 10997 10997 10996 10996 10996 10996 10995 10995 10995 10995 10995 10995 10995 10994 10994 10994 10993 10992 10991 10990 10990 10989 10989 10988 10987 10986 10985 10985 10985 10983 10983 10982 10981 10980 10980 10980 10979 10978 10976 10976 10975 10974 10973 10973 10972 10971 10970 10969 10968 10967 10966 10966 10966 10966
10984 10985 10986 10987 10988 10988 10988 10988 10988 10988 10989 10989 10990 10990 10990 10990 10990 10989 10989 10990 10990 10991 10991 10991 10991 10991 10991 10990 10990 10990 10990 10990 10989 10989 10989 10989 10989 10988 10987 10986 10986 10985 10984 10984 10984 10983 10981 10981 10980 10980 10979 10978 10977 10977 10976 10976 10976 10975 10974 10973 10972 10971 10970 10969 10969 10968 10966 10965 10964 10963 10962 10962 10962 10962
10977 10977 10978 10980 10981 10982 10982 10983 10983 10983 10983 10984 10984 10984 10984 10984 10983 10983 10982 10982 10982 10983 10983 10984 10985 10985 10985 10985 10985 10984 10984 10984 10983 10983 10983 10984 10983 10983 10982 10982 10981 10980 10980 10979 10979 10978 10977 10976 10976 10975 10975 10973 10972 10972 10971 10971 10971 10970 10969 10969 10968 10967 10965 10965 10965 10964 10963 10961 10960 10958 10958 10957 10957 10956
10972 10971 10971 10972 10973 10974 10975 10976 10976 10977 10977 10977 10977 10977 10977 10977 10977 10976 10975 10975 10975 10975 10976 10977 10977 10977 10977 10977 10978 10977 10977 10977 10977 10977 10977 10977 10977 10976 10976 10976 10976 10975 10974 10974 10973 10972 10972 10971 10970 10970 10969 10969 10967 10966 10965 10965 10965 10965 10964 10963 10963 10963 10961 10960 10959 10959 10958 10957 10955 10954 10953 10953 10952 10951
10967 10966 10966 10966 10966 10966 10966 10967 10968 10970 10971 10971 10970 10970 10970 10970 10969 10968 10968 10968 10968 10968 10969 10969 10969 10969 10969 10970 10970 10969 10969 10969 10969 10969 10969 10969 10970 10970 10969 10970 10970 10970 10969 10968 10967 10966 10965 10965 10964 10964 10963 10962 10961 10961 10959 10958 10959 10959 10958 10956 10956 10957 10957 10956 10955 10953 10952 10951 10950 10949 10948 10947 10947 10946
10960 10960 10960 10960 10959 10959 10959 10959 10959 10960 10961 10963 10963 10963 10964 10963 10961 10961 10961 10962 10962 10962 10961 10961 10961 10961 10962 10962 10961 10961 10961 10961 10961 10961 10961 10961 10962 10962 10962 10962 10962 10962 10962 10962 10961 10959 10958 10958 10958 10957 10956 10955 10954 10954 10953 10952 10952 10951 10950 10950 10950 10949 10950 10950 10949 10948 10947 10945 10944 10943 10942 10941 10941 10940
10951 10952 10952 10952 10951 10951 10951 10952 10951 10951 10951 10952 10953 10954 10955 10955 10954 10954 10954 10954 10954 10954 10954 10954 10954 10954 10954 10953 10952 10952 10953 10953 10952 10952 10952 10952 10952 10953 10953 10953 10953 10953 10954 10955 10954 10953 10952 10951 10951 10949 10948 10947 10946 10945 10945 10946 10945 10943 10942 10942 10943 10942 10941 10941 10941 10941 10941 10939 10937 10936 10936 10935 10935 10934
10940 10942 10943 10943 10943 10943 10943 10944 10943 10942 10942 10941 10941 10943 10944 10944 10944 10944 10945 10945 10946 10946 10946 10947 10948 10947 10946 10944 10943 10944 10945 10944 10943 10943 10943 10943 10943 10943 10943 10943 10943 10943 10944 10945 10945 10945 10945 10945 10943 10941 10940 10939 10937 10937 10937 10936 10936 10936 10935 10934 10933 10933 10932 10933 10933 10932 10932 10931 10930 10928 10928 10928 10928 10927
10929 10931 10933 10934 10934 10933 10934 10935 10934 10933 10932 10931 10931 10933 10935 10934 10933 10933 10933 10935 10936 10937 10938 10939 10940 10939 10937 10935 10935 10936 10936 10935 10935 10934 10934 10934 10933 10933 10933 10933 10933 10933 10934 10934 10934 10935 10935 10935 10935 10934 10932 10930 10928 10928 10929 10927 10926 10926 10926 10926 10925 10924 10923 10923 10923 10923 10922 10922 10921 10919 10918 10918 10919 10919
10917 10919 10921 10923 10923 10923 10925 10926 10926 10924 10922 10921 10921 10923 10924 10923 10922 10922 10923 10923 10924 10925 10926 10928 10930 10929 10928 10927 10926 10926 10926 10925 10926 10926 10925 10924 10924 10924 10923 10923 10923 10923 10923 10923 10923 10923 10923 10924 10924 10924 10922 10920 10918 10917 10918 10919 10918 10916 10915 10915 10915 10915 10914 10913 10912 10912 10912 10913 10913 10911 10907 10905 10906 10909
10906 10907 10908 10909 10910 10911 10914 10916 10916 10916 10915 10913 10912 10912 10912 10912 10912 10912 10912 10912 10912 10912 10913 10915 10917 10917 10917 10916 10915 10914 10914 10914 10915 10915 10914 10914 10914 10914 10914 10914 10913 10912 10912 10912 10913 10913 10913 10913 10913 10912 10910 10910 10908 10905 10905 10909 10911 10909 10907 10905 10903 10904 10905 10904 10902 10902 10902 10902 10902 10902 10899 10895 10893 10895
10894 10895 10896 10896 10896 10898 10900 10903 10904 10906 10906 10905 10903 10903 10902 10902 10902 10901 10901 10901 10901 10901 10902 10902 10904 10904 10904 10903 10902 10902 10902 10902 10902 10902 10901 10902 10903 10903 10904 10903 10902 10901 10901 10901 10901 10901 10901 10901 10901 10901 10899 10898 10898 10894 10891 10892 10896 10900 10901 10898 10894 10893 10894 10894 10892 10891 10891 10891 10891 10891 10890 10887 10883 10881
10881 10882 10883 10883 10884 10885 10888 10890 10892 10893 10893 10893 10892 10891 10891 10891 10891 10891 10891 10890 10890 10890 10891 10890 10890 10890 10889 10889 10889 10889 10889 10890 10889 10889 10889 10889 10890 10891 10891 10890 10889 10889 10889 10889 10889 10889 10889 10889 10889 10889 10889 10888 10887 10884 10880 10876 10877 10882 10887 10888 10885 10883 10884 10883 10882 10880 10878 10879 10880 10880 10878 10877 10874 10870
10867 10869 10870 10871 10872 10873 10876 10878 10880 10880 10880 10879 10879 10879 10879 10879 10879 10880 10880 10880 10879 10879 10878 10878 10877 10877 10877 10877 10877 10876 10875 10875 10876 10876 10876 10877 10877 10877 10876 10875 10876 10876 10875 10875 10874 10875 10875 10876 10876 10876 10877 10877 10876 10874 10871 10867 10862 10862 10867 10872 10872 10872 10872 10872 10871 10870 10867 10867 10868 10867 10865 10865 10864 10861
10853 10854 10856 10857 10858 10860 10862 10864 10865 10866 10867 10866 10866 10866 10866 10866 10867 10868 10868 10867 10866 10865 10865 10864 10863 10863 10864 10864 10864 10864 10864 10864 10864 10864 10864 10864 10864 10863 10862 10862 10862 10862 10861 10860 10859 10858 10859 10860 10861 10862 10863 10863 10863 10862 10861 10859 10853 10848 10849 10853 10856 10857 10857 10857 10858 10858 10856 10855 10855 10855 10853 10851 10851 10850
10838 10839 10841 10843 10844 10846 10848 10850 10850 10851 10852 10852 10852 10852 10852 10852 10853 10854 10855 10854 10853 10852 10851 10850 10849 10848 10848 10849 10849 10850 10851 10851 10852 10851 10851 10851 10850 10850 10849 10849 10848 10848 10848 10847 10845 10843 10842 10842 10844 10845 10846 10847 10848 10848 10848 10847 10844 10838 10835 10836 10838 10840 10840 10841 10842 10842 10842 10841 10840 10841 10840 10837 10837 10837
10824 10825 10827 10829 10829 10831 10833 10835 10835 10835 10836 10836 10837 10837 10837 10837 10837 10839 10840 10840 10839 10837 10836 10836 10835 10834 10834 10834 10834 10835 10836 10836 10837 10836 10836 10836 10836 10835 10834 10834 10834 10834 10835 10835 10833 10831 10829 10827 10827 10827 10828 10828 10830 10831 10832 10832 10831 10828 10823 10820 10820 10821 10823 10824 10825 10825 10826 10826 10825 10825 10825 10823 10823 10823
10810 10811 10812 10814 10815 10816 10818 10820 10821 10820 10820 10820 10820 10821 10821 10821 10822 10823 10824 10824 10823 10822 10821 10820 10820 10820 10819 10819 10819 10820 10820 10821 10821 10821 10820 10820 10819 10818 10817 10817 10818 10819 10820 10820 10819 10817 10815 10813 10812 10812 10812 10812 10812 10813 10815 10815 10815 10814 10811 10807 10803 10802 10803 10805 10806 10807 10807 10807 10807 10808 10808 10808 10808 10809
10796 10797 10798 10798 10800 10801 10803 10804 10805 10805 10804 10803 10803 10804 10806 10807 10808 10808 10808 10808 10807 10806 10805 10804 10804 10804 10804 10804 10804 10805 10805 10805 10805 10805 10804 10802 10801 10800 10801 10801 10801 10801 10801 10802 10802 10801 10799 10797 10797 10796 10796 10795 10795 10796 10798 10800 10799 10799 10797 10794 10790 10786 10784 10785 10787 10788 10787 10786 10785 10786 10787 10789 10790 10792
10782 10783 10783 10783 10785 10787 10788 10788 10788 10788 10788 10788 10787 10787 10789 10790 10791 10791 10792 10791 10791 10790 10789 10788 10788 10788 10788 10788 10788 10789 10789 10789 10789 10787 10785 10784 10783 10783 10784 10784 10784 10784 10783 10783 10783 10783 10782 10780 10779 10778 10777 10776 10776 10776 10778 10781 10782 10782 10780 10778 10776 10772 10769 10769 10770 10771 10770 10768 10765 10763 10763 10765 10766 10768